Regional Weather Roundup
Issued by NWS San Diego, CA

Home | Current Version | Previous Version | Text Only | Print | Product List | Glossary On
Versions: 1 2 3 4 5 6 7 8 9 10 11 12 13 14 15 16 17 18 19 20 21 22 23 24 25 26 27 28 29 30 31 32 33 34 35 36 37 38 39 40 41 42 43 44 45 46 47 48 49 50
000
ASUS46 KSGX 292111
RWRSGX

SAN DIEGO HOURLY WEATHER ROUNDUP
NATIONAL WEATHER SERVICE SAN DIEGO CA
200 PM PDT FRI MAY 29 2015

NOTE: "FAIR" INDICATES FEW OR NO CLOUDS BELOW 12,000 FEET WITH NO
SIGNIFICANT WEATHER AND/OR OBSTRUCTIONS TO VISIBILITY.

CAZ042-043-060-061-PZZ750-775-292200-

GREATER SAN DIEGO AREA

CITY           SKY/WX    TMP DP  RH WIND       PRES   REMARKS
LINDBERGH FLD  MOSUNNY   69  56  62 W9G16     29.96S
POINT LOMA       N/A     67  55  65 W10         N/A
NATIONAL CITY    N/A     69  60  72 W3        29.96S
CHULA VISTA      N/A     67  60  79 W8        29.88S
IMPERIAL BEACH PTSUNNY   66  57  72 W12       29.96S
BROWN FIELD    SUNNY     69  57  65 W10       29.95R
MIRAMAR MCAS   MOSUNNY   73  56  54 W9        29.94S
MONTGOMERY FLD MOSUNNY   69  57  65 SW12      29.95R

$$

NORTH SAN DIEGO COUNTY

CITY           SKY/WX    TMP DP  RH WIND       PRES   REMARKS
OCEANSIDE AP   SUNNY     70  58  65 SW14      29.93S
OCEANSIDE HBR    N/A     65  61  87 SW12      29.97S
VISTA            N/A     71  61  70 W3        29.91S
CARLSBAD       MOSUNNY   66  58  75 SW10      29.94S
DEL MAR          N/A     66  60  81 W2        29.97S
LA JOLLA SCRIP   N/A    N/A N/A N/A SW5       29.93S
FALLBROOK        N/A     79  61  53 S7        29.92S
ESCONDIDO        N/A     80  62  54 W5        29.93S
SAN MARCOS       N/A     72  61  68 NW2       29.91S
POWAY            N/A     78  61  55 SW6       29.94R

$$

EAST SAN DIEGO COUNTY

CITY           SKY/WX    TMP DP  RH WIND       PRES   REMARKS
RAMONA         SUNNY     83  57  41 W14       29.94S
SANTEE LAKES     N/A     76  61  60 SW8       29.92R
LA MESA          N/A     73  60  65 W10       29.87S
JAMUL            N/A     76  61  59 SW5       29.92S
DESCANSO N       N/A     84  55  36 CALM      29.79F
MT. LAGUNA OBS   N/A     73  35  25 NE12      29.74S
CAMPO            N/A     87  42  20 SW17      29.92F

$$

ORANGE COUNTY AND THE LOS ANGELES BASIN

CITY           SKY/WX    TMP DP  RH WIND       PRES   REMARKS
JOHN WAYNE AP  PTSUNNY   71  56  58 W7        29.93S
LAKE FOREST FR   N/A     81  57  43 SW3       29.82F
SANTA ANA        N/A     78  61  55 SW5       29.88S
HUNTINGTON BCH   N/A     70  61  72 S7        29.96S
LOS ALAMITOS   MOSUNNY   73  59  61 S12       29.93F
FULLERTON      SUNNY     78  56  46 S10       29.91F
LONG BEACH     SUNNY     72  57  59 SW9       29.93F
L.A. AP        PTSUNNY   67  58  72 W13       29.95F
L.A. DOWNTOWN  SUNNY     74  58  57 VRB3      29.93S

$$

THE INLAND EMPIRE

CITY           SKY/WX    TMP DP  RH WIND       PRES   REMARKS
CORONA         SUNNY     84  56  38 W16       29.90F
CHINO          PTSUNNY   89  53  29 SW13G20   29.91F
ONTARIO        PTSUNNY   87  52  29 W13       29.91F
SAN BERNARDINO MOSUNNY   90  41  18 W8        29.91F
RIVERSIDE AP   SUNNY     87  53  31 W10       29.90F
RIV CYN CREST    N/A     84  57  38 W7          N/A
MORENO VALLEY    N/A     91  54  28 W7        29.89F
MARCH ARB      MOSUNNY   88  52  29 NW14      29.92F
HORSETHIEF CYN   N/A     86  49  27 NW7       29.87F
PERRIS           N/A     87  52  29 W7          N/A
MENIFEE          N/A     92  55  28 S1        29.95F
HEMET EAST       N/A     88  47  23 W2        29.90F
FRENCH VALLEY  FAIR      86  54  32 SW10G16   29.92F
TEMECULA         N/A     85  58  40 SW10      29.87S

$$

SAN BERNARDINO AND RIVERSIDE COUNTY MOUNTAINS

CITY           SKY/WX    TMP DP  RH WIND       PRES   REMARKS
BIG BEAR AP    SUNNY     73  28  19 W6G21     30.22S
ANGELUS OAKS     N/A     77  46  32 CALM      29.81F
PINE COVE        N/A     73  48  41 W1        29.89F

$$

SOUTHERN DESERT INCLUDING THE COACHELLA VALLEY

CITY           SKY/WX    TMP DP  RH WIND       PRES   REMARKS
PALM SPRINGS   MOSUNNY   97  39  13 E15       29.86F
THOUSAND PALMS   N/A     96  44  16 CALM      29.84F
PALM DESERT      N/A     96  46  17 SE8         N/A
THERMAL        SUNNY     97  38  13 S9        29.81F
BLYTHE         SUNNY     99  32   9 SW7       29.84F
IMPERIAL AP    SUNNY     97  49  19 VRB3      29.81F
EL CENTRO NAS  MOSUNNY   97  44  16 VRB3      29.83F
YUMA AZ        MOSUNNY   99  32   9 S8        29.84F
MEXICALI       SUNNY     97  39  13 SE7       29.84

$$

UPPER DESERT

CITY           SKY/WX    TMP DP  RH WIND       PRES   REMARKS
VICTORVILLE AP SUNNY     93  27   9 SE6       29.95F
HESPERIA         N/A     92  34  13 SW15      29.95F
APPLE VALLEY     N/A     93  33  12 S12       29.97F
PALMDALE       SUNNY     93  23   8 NW7       29.94F
LANCASTER      SUNNY     94  29  10 NW8       29.92F
EDWARDS AFB    PTSUNNY   93  21   7 SW6       29.91F
DAGGETT        SUNNY     98  21   6 NE13      29.87F
29 PALMS N     MOSUNNY   95  27   9 E13       29.98F
NEEDLES        SUNNY    102  -3   2 E7        29.85F

$$

REGIONAL REPORTS

CITY           SKY/WX    TMP DP  RH WIND       PRES   REMARKS
SANTA BARBARA  MOSUNNY   65  56  72 SW6       29.95F
SANDBERG       SUNNY     86  38  18 S14G20    30.08F
LAS VEGAS NV   MOSUNNY   95  26   8 SE7       29.88F
PHOENIX AZ     MOSUNNY  101  25   7 W8        29.86F
TIJUANA        MOSUNNY   68  54  60 W9        29.97R
ENSENADA NW      N/A     64  32  30 W3        29.94F

$$

OFFSHORE ISLANDS

CITY           SKY/WX    TMP DP  RH WIND       PRES   REMARKS
CATALINA ARPT  MOSUNNY   69  54  58 W7        29.97F
SAN CLEMENTE I CLOUDY    66  54  65 SW10      29.97F
SAN NICOLAS IS PTSUNNY   63  47  55 NW9       29.96F

$$

MARINE AND OFFSHORE BUOY REPORTS

STATION/POSITION SKY/WX   TEMP    WIND        PRES    SWELL
                          AIR SEA DIR/SP/G            HT/PER/DIR
                          (F)     (DEG/KT/KT) (MB)    (FT/S/D)
TANNER BANKS               58 60  320/ 14/ 16 1014.7F   5/260/13
S CLEMENTE BASIN           60 64  260/ 10/ 10 1014.3F   3/200/16
SAN NICOLAS IS.               60                N/A     3/240/13
SO. S. ROSA ISLA           55 60  330/ 16/ 17 1014.2F   5/13
W. S. BARBARA CH           54 56  320/ 12/ 14 1014.5F   3/260/14
M. S. BARBARA CH           57 60  230/  4/  6 1015.8F
S. MONICA BASIN            61 64  310/  2/  4 1014.4F   3/250/14
S PEDRO CHANNEL               65                N/A     2/210/13
DANA POINT                    66                N/A     2/190/15
OCEANSIDE OFFSHR              67                N/A     3/210/15
TORREY PINES OTR              65                N/A     3/220/15
LA JOLLA 1                                    1014.2S
MISSION BAY BUOY              65                N/A     3/220/15
SAN DIEGO BAY                                 1014.6S
POINT LOMA SOUTH              65                N/A     3/220/15

$$




USA.gov is the U.S. government's official web portal to all federal, state and local government web resources and services.